Location: Unspecified
(0.0000°N, 0.0000°E)
Time: 04:58:06
(UTC+00:00)

Explorer 7 - All Passes

Search period start: 10 December 2016 00:00
Search period end: 20 December 2016 00:00
Orbit: 486 x 685 km, 50.3° (Epoch: 09 December)

Date Brightness Start Highest point End Pass type
(mag) Time Alt. Az. Time Alt. Az. Time Alt. Az.
10 Dec - 06:35:34 10° NNW 06:40:01 41° NE 06:44:37 10° ESE daylight
10 Dec - 08:17:39 10° W 08:20:36 16° SW 08:23:36 10° SSW daylight
10 Dec - 18:39:44 10° SSW 18:43:36 54° SE 18:47:19 10° NE visible
11 Dec - 06:41:20 10° NW 06:46:02 86° NE 06:50:57 10° SE daylight
11 Dec - 18:45:46 10° SW 18:49:40 58° NW 18:53:23 10° NNE visible
12 Dec - 05:09:15 10° NNE 05:11:38 14° NE 05:14:03 10° E visible
12 Dec - 06:47:36 10° NW 06:52:06 45° SW 06:56:48 10° SSE daylight
12 Dec - 17:12:46 10° SSE 17:15:16 16° SE 17:17:41 10° E daylight
12 Dec - 18:52:26 10° WSW 18:55:41 24° NW 18:58:49 10° N visible
13 Dec - 05:13:45 10° N 05:17:40 28° NE 05:21:46 10° ESE visible
13 Dec - 06:54:30 10° WNW 06:58:12 23° SW 07:02:02 10° S daylight
13 Dec - 17:17:40 10° SSW 17:21:23 34° SE 17:24:56 10° ENE daylight
13 Dec - 19:00:39 10° WNW 19:01:44 11° NW 19:02:47 10° NW visible
14 Dec - 05:19:12 10° NNW 05:23:42 57° NE 05:28:27 10° SE visible
14 Dec - 07:02:54 10° WSW 07:04:22 11° SW 07:05:51 10° SSW daylight
14 Dec - 17:23:23 10° SW 17:27:28 84° SE 17:31:19 10° NE daylight
15 Dec - 05:25:11 10° NW 05:29:44 67° SW 05:34:33 10° SSE visible
15 Dec - 15:51:57 10° SE 15:52:58 11° SE 15:53:59 10° ESE daylight
15 Dec - 17:29:41 10° WSW 17:33:29 39° NW 17:37:06 10° NNE daylight
16 Dec - 03:52:14 10° N 03:55:21 18° NE 03:58:36 10° E visible
16 Dec - 05:31:43 10° WNW 05:35:49 32° SW 05:40:07 10° S visible
16 Dec - 15:55:46 10° S 15:59:08 23° SE 16:02:20 10° ENE daylight
16 Dec - 17:36:46 10° W 17:39:30 17° NW 17:42:09 10° N daylight
17 Dec - 03:57:14 10° NNW 04:01:22 37° NE 04:05:45 10° ESE visible
17 Dec - 05:39:04 10° W 05:41:57 16° SW 05:44:55 10° SSW daylight
17 Dec - 16:01:06 10° SSW 16:05:14 52° SE 16:09:05 10° NE daylight
18 Dec - 04:02:56 10° NW 04:07:23 81° NE 04:12:08 10° SE visible
18 Dec - 16:07:05 10° SW 16:11:16 64° NW 16:15:10 10° NNE daylight
19 Dec - 02:31:23 10° NNE 02:33:02 12° NE 02:34:43 10° ENE visible
19 Dec - 04:09:09 10° NW 04:13:26 46° SW 04:18:00 10° SSE visible
19 Dec - 14:34:05 10° SSE 14:36:48 16° SE 14:39:25 10° E daylight
19 Dec - 16:13:41 10° WSW 16:17:16 27° NW 16:20:40 10° N daylight
